sat.trackr.live / text

‹ back to catalog

STARLINK-4645

NORAD 53743 · 2022-107AV

PAYLOAD ACTIVE UNKNOWN

§ Identity

Operator
Country
US
Launch date
2022-09-05
Launch site
AFETR
Launch vehicle
Mass (kg)
RCS (m²)

Purposes: comms

External: N2YO · Heavens-Above · Gunter

§ Orbital elements

Epoch: 2026-05-24T19:25:29.040960Z

Period
95.44 min
Inclination
53.2136°
Eccentricity
0.0001428
Mean motion
15.08831760 rev/d
Perigee alt
538.8 km
Apogee alt
540.8 km
Semi-major
6,917.9 km
B*
3.3450e-5
RAAN
282.4952°
Arg perigee
66.0491°
Mean anomaly
294.0650°
Rev number
20,608

§ Raw data

STARLINK-46451 53743U 22107AV  26144.80936390  .00000244  00000+0  33450-4 0  99972 53743  53.2136 282.4952 0001428  66.0491 294.0650 15.08831760206088

JSON: /api/v1/satellites/53743 · /tle

For live sub-satellite position, see the globe view (requires WebGL).

§ Visibility from observer

Set your observer location to see the next 7 days of passes ≥ 10°. The values pass through the URL so the page stays shareable.

No JS? Fill the form by hand. The geolocation button needs JavaScript.